Content
SEND FEEDBACK

Daily
Averages
Monthly
Summary
Mexico

CANCUN, QUINTANA ROO


Home > North America > Mexico > Quintana Roo
Elevation: 30 feet     Latitude: 21 09N     Longitude: 086 49W

WEATHER
 
SELECT A DAY
Number of Records: 165,825;   Date Range: 1/1/95 - 9/29/14
 
SHARE

PRINT THIS DATA

[ ← Previous Day ]
WEATHER ALMANAC - JUNE 29, 2013
[ Next Day → ]
[ °C ]   °F
We're sorry. There is no daily almanac available for Cancun, Quintana Roo on June 29, 2013.
WEATHER BY HOUR - JUNE 29, 2013
[ °C ]   °F
Local TimeTemperatureDewpointHumidityBarometerVisibilityWind DirectionWind SpeedGust SpeedPrecipitationEventsConditions
1:46 AM77.0 °F73.4 °F89 %29.89 in7.0 miCalmMostly Cloudy
2:43 AM75.2 °F73.4 °F94 %29.88 in7.0 miCalmMostly Cloudy
3:46 AM75.2 °F73.4 °F94 %29.85 in6.0 miCalmMostly Cloudy
4:45 AM75.2 °F73.4 °F94 %29.88 in6.0 miNW (310°)5.8 mphMostly Cloudy
5:44 AM73.4 °F73.4 °F100 %29.89 in6.0 miWNW (300°)5.8 mphMostly Cloudy
6:43 AM73.4 °F71.6 °F94 %29.88 in7.0 miWNW (300°)4.6 mphScattered Clouds
7:44 AM75.2 °F73.4 °F94 %29.91 in7.0 miNW (310°)3.5 mphScattered Clouds
8:43 AM82.4 °F75.2 °F79 %29.91 in7.0 miCalmMostly Cloudy
9:41 AM86.0 °F73.4 °F66 %29.91 in7.0 miSouth (180°)3.5 mphMostly Cloudy
10:40 AM86.0 °F73.4 °F66 %29.90 in7.0 miSSW (200°)4.6 mphMostly Cloudy
11:40 AM87.8 °F75.2 °F66 %29.89 in7.0 miSSE (160°)5.8 mphMostly Cloudy
12:43 PM86.0 °F75.2 °F70 %29.88 in7.0 miSE (130°)8.1 mphMostly Cloudy
1:46 PM87.8 °F75.2 °F66 %29.86 in7.0 miSE (130°)11.5 mphMostly Cloudy
2:43 PM86.0 °F75.2 °F70 %29.85 in7.0 miESE (120°)10.4 mphMostly Cloudy
3:48 PM84.2 °F75.2 °F74 %29.86 in7.0 miWSW (250°)2.3 mphMostly Cloudy
4:41 PM78.8 °F75.2 °F89 %29.84 in6.0 miWNW (300°)4.6 mphMostly Cloudy
5:44 PM82.4 °F77.0 °F84 %29.84 in6.0 miCalmMostly Cloudy
6:49 PM80.6 °F77.0 °F89 %29.85 in6.0 miEast (80°)2.3 mphMostly Cloudy
7:43 PM80.6 °F77.0 °F89 %29.87 in6.0 miNE (40°)2.3 mphMostly Cloudy
8:17 PM80.6 °F77.0 °F89 %29.89 in5.0 miSE (130°)5.8 mphRainRain
8:42 PM78.8 °F77.0 °F94 %29.84 in5.0 miCalmRainLight Rain
9:44 PM78.8 °F77.0 °F94 %29.91 in6.0 miSSW (200°)3.5 mphMostly Cloudy
10:43 PM75.2 °F73.4 °F94 %29.90 in6.0 miWNW (300°)2.3 mphOvercast
11:40 PM75.2 °F73.4 °F94 %29.90 in6.0 miCalmOvercast
Hourly data recorded from MMUN, located miles away from Cancun, Quintana Roo







STORIES FROM OUR PARTNERS